Year,Month,Day,Hour,Minute,Value (Times are PST for temperature in C)
2014,11,12,15,31,6.30
2014,11,12,15,32,6.30
2014,11,12,15,33,6.30
2014,11,12,15,34,6.30
2014,11,12,15,35,6.30
2014,11,12,15,36,6.30
2014,11,12,15,37,6.30
2014,11,12,15,38,6.30
2014,11,12,15,39,6.30
2014,11,12,15,40,6.30
2014,11,12,15,41,6.30
2014,11,12,15,42,6.30
2014,11,12,15,43,6.30
2014,11,12,15,44,6.20
2014,11,12,15,45,6.20
2014,11,12,15,46,6.20
2014,11,12,15,47,6.20
2014,11,12,15,48,6.10
2014,11,12,15,49,6.10
2014,11,12,15,50,6.10
2014,11,12,15,51,6.00
2014,11,12,15,52,6.00
2014,11,12,15,53,6.00
2014,11,12,15,54,6.00
2014,11,12,15,55,5.90
2014,11,12,15,56,5.90
2014,11,12,15,57,5.90
2014,11,12,15,58,5.90
2014,11,12,15,59,5.90
2014,11,12,16,00,5.90
2014,11,12,16,01,5.90
2014,11,12,16,02,5.90
2014,11,12,16,03,5.80
2014,11,12,16,04,5.90
2014,11,12,16,05,5.90
2014,11,12,16,06,5.90
2014,11,12,16,07,5.90
2014,11,12,16,08,5.90
2014,11,12,16,09,5.90
2014,11,12,16,10,5.90
2014,11,12,16,11,5.80
2014,11,12,16,12,5.80
2014,11,12,16,13,5.70
2014,11,12,16,14,5.70
2014,11,12,16,15,5.60
2014,11,12,16,16,5.60
2014,11,12,16,17,5.50
2014,11,12,16,18,5.40
2014,11,12,16,19,5.40
2014,11,12,16,20,5.40
2014,11,12,16,21,5.30
2014,11,12,16,22,5.30
2014,11,12,16,23,5.30
2014,11,12,16,24,5.20
2014,11,12,16,25,5.20
2014,11,12,16,26,5.10
2014,11,12,16,27,5.10
2014,11,12,16,28,5.00
2014,11,12,16,29,5.00
2014,11,12,16,30,5.00
2014,11,12,16,31,4.90
2014,11,12,16,32,4.90
2014,11,12,16,33,4.90
2014,11,12,16,34,4.80
2014,11,12,16,35,4.80
2014,11,12,16,36,4.80
2014,11,12,16,37,4.80
2014,11,12,16,38,4.80
2014,11,12,16,39,4.70
2014,11,12,16,40,4.70
2014,11,12,16,41,4.60
2014,11,12,16,42,4.60
2014,11,12,16,43,4.50
2014,11,12,16,44,4.50
2014,11,12,16,45,4.40
2014,11,12,16,46,4.30
2014,11,12,16,47,4.30
2014,11,12,16,48,4.20
2014,11,12,16,49,4.10
2014,11,12,16,50,4.00
2014,11,12,16,51,3.90
2014,11,12,16,52,3.80
2014,11,12,16,53,3.70
2014,11,12,16,54,3.60
2014,11,12,16,55,3.40
2014,11,12,16,56,3.30
2014,11,12,16,57,3.20
2014,11,12,16,58,3.10
2014,11,12,16,59,2.90
2014,11,12,17,00,2.80
2014,11,12,17,01,2.70
2014,11,12,17,02,2.60
2014,11,12,17,03,2.50
2014,11,12,17,04,2.40
2014,11,12,17,05,2.30
2014,11,12,17,06,2.20
2014,11,12,17,07,2.00
2014,11,12,17,08,2.00
2014,11,12,17,09,1.80
2014,11,12,17,10,1.80
2014,11,12,17,11,1.70
2014,11,12,17,12,1.60
2014,11,12,17,13,1.50
2014,11,12,17,14,1.30
2014,11,12,17,15,1.30
2014,11,12,17,16,1.30
2014,11,12,17,17,1.10
2014,11,12,17,18,1.10
2014,11,12,17,19,1.00
2014,11,12,17,20,0.90
2014,11,12,17,21,0.90
2014,11,12,17,22,0.90
2014,11,12,17,23,0.80
2014,11,12,17,24,0.80
2014,11,12,17,25,0.70
2014,11,12,17,26,0.70
2014,11,12,17,27,0.60
2014,11,12,17,28,0.60
2014,11,12,17,29,0.50
2014,11,12,17,30,0.40
2014,11,12,17,31,0.40
2014,11,12,17,32,0.30
2014,11,12,17,33,0.30
2014,11,12,17,34,0.20
2014,11,12,17,35,0.20
2014,11,12,17,36,0.10
2014,11,12,17,37,0.10
2014,11,12,17,38,0.00
2014,11,12,17,39,-0.10
2014,11,12,17,40,-0.10
2014,11,12,17,41,-0.20
2014,11,12,17,42,-0.20
2014,11,12,17,43,-0.30
2014,11,12,17,44,-0.30
2014,11,12,17,45,-0.30
2014,11,12,17,46,-0.40
2014,11,12,17,47,-0.50
2014,11,12,17,48,-0.50
2014,11,12,17,49,-0.60
2014,11,12,17,50,-0.60
2014,11,12,17,51,-0.70
2014,11,12,17,52,-0.80
2014,11,12,17,53,-0.80
2014,11,12,17,54,-0.90
2014,11,12,17,55,-0.90
2014,11,12,17,56,-1.00
2014,11,12,17,57,-1.00
2014,11,12,17,58,-1.10
2014,11,12,17,59,-1.10
2014,11,12,18,00,-1.10
2014,11,12,18,01,-1.10
2014,11,12,18,02,-1.20
2014,11,12,18,03,-1.20
2014,11,12,18,04,-1.20
2014,11,12,18,05,-1.20
2014,11,12,18,06,-1.20
2014,11,12,18,07,-1.30
2014,11,12,18,08,-1.30
2014,11,12,18,09,-1.30
2014,11,12,18,10,-1.30
2014,11,12,18,11,-1.40
2014,11,12,18,12,-1.40
2014,11,12,18,13,-1.40
2014,11,12,18,14,-1.40
2014,11,12,18,15,-1.50
2014,11,12,18,16,-1.50
2014,11,12,18,17,-1.50
2014,11,12,18,18,-1.50
2014,11,12,18,19,-1.60
2014,11,12,18,20,-1.60
2014,11,12,18,21,-1.60
2014,11,12,18,22,-1.60
2014,11,12,18,23,-1.60
2014,11,12,18,24,-1.70
2014,11,12,18,25,-1.70
2014,11,12,18,26,-1.80
2014,11,12,18,27,-1.80
2014,11,12,18,28,-1.80
2014,11,12,18,29,-1.80
2014,11,12,18,30,-1.80
2014,11,12,18,31,-1.80
2014,11,12,18,32,-1.80
2014,11,12,18,33,-1.90
2014,11,12,18,34,-1.90
2014,11,12,18,35,-1.90
2014,11,12,18,36,-1.90
2014,11,12,18,37,-2.00
2014,11,12,18,38,-2.00
2014,11,12,18,39,-2.00
2014,11,12,18,40,-2.00
2014,11,12,18,41,-2.10
2014,11,12,18,42,-2.10
2014,11,12,18,43,-2.10
2014,11,12,18,44,-2.10
2014,11,12,18,45,-2.10
2014,11,12,18,46,-2.10
2014,11,12,18,47,-2.10
2014,11,12,18,48,-2.10
2014,11,12,18,49,-2.10
2014,11,12,18,50,-2.10
2014,11,12,18,51,-2.10
2014,11,12,18,52,-2.20
2014,11,12,18,53,-2.20
2014,11,12,18,54,-2.20
2014,11,12,18,55,-2.20
2014,11,12,18,56,-2.20
2014,11,12,18,57,-2.20
2014,11,12,18,58,-2.20
2014,11,12,18,59,-2.20
2014,11,12,19,00,-2.30
2014,11,12,19,01,-2.30
2014,11,12,19,02,-2.30
2014,11,12,19,03,-2.30
2014,11,12,19,04,-2.30
2014,11,12,19,05,-2.30
2014,11,12,19,06,-2.30
2014,11,12,19,07,-2.30
2014,11,12,19,08,-2.30
2014,11,12,19,09,-2.30
2014,11,12,19,10,-2.30
2014,11,12,19,11,-2.30
2014,11,12,19,12,-2.30
2014,11,12,19,13,-2.30
2014,11,12,19,14,-2.30
2014,11,12,19,15,-2.30
2014,11,12,19,16,-2.30
2014,11,12,19,17,-2.30
2014,11,12,19,18,-2.30
2014,11,12,19,19,-2.30
2014,11,12,19,20,-2.30
2014,11,12,19,21,-2.30
2014,11,12,19,22,-2.30
2014,11,12,19,23,-2.30
2014,11,12,19,24,-2.40
2014,11,12,19,25,-2.40
2014,11,12,19,26,-2.40
2014,11,12,19,27,-2.40
2014,11,12,19,28,-2.40
2014,11,12,19,29,-2.40
2014,11,12,19,30,-2.50
2014,11,12,19,31,-2.50
2014,11,12,19,32,-2.50
2014,11,12,19,33,-2.50
2014,11,12,19,34,-2.60
2014,11,12,19,35,-2.60
2014,11,12,19,36,-2.60
2014,11,12,19,37,-2.60
2014,11,12,19,38,-2.60
2014,11,12,19,39,-2.60
2014,11,12,19,40,-2.60
2014,11,12,19,41,-2.60
2014,11,12,19,42,-2.60
2014,11,12,19,43,-2.60
2014,11,12,19,44,-2.60
2014,11,12,19,45,-2.60
2014,11,12,19,46,-2.60
2014,11,12,19,47,-2.70
2014,11,12,19,48,-2.70
2014,11,12,19,49,-2.70
2014,11,12,19,50,-2.70
2014,11,12,19,51,-2.70
2014,11,12,19,52,-2.70
2014,11,12,19,53,-2.70
2014,11,12,19,54,-2.70
2014,11,12,19,55,-2.80
2014,11,12,19,56,-2.80
2014,11,12,19,57,-2.80
2014,11,12,19,58,-2.80
2014,11,12,19,59,-2.80
2014,11,12,20,00,-2.80
2014,11,12,20,01,-2.80
2014,11,12,20,02,-2.80
2014,11,12,20,03,-2.80
2014,11,12,20,04,-2.80
2014,11,12,20,05,-2.80
2014,11,12,20,06,-2.80
2014,11,12,20,07,-2.80
2014,11,12,20,08,-2.80
2014,11,12,20,09,-2.80
2014,11,12,20,10,-2.80
2014,11,12,20,11,-2.80
2014,11,12,20,12,-2.80
2014,11,12,20,13,-2.80
2014,11,12,20,14,-2.80
2014,11,12,20,15,-2.80
2014,11,12,20,16,-2.80
2014,11,12,20,17,-2.80
2014,11,12,20,18,-2.80
2014,11,12,20,19,-2.80
2014,11,12,20,20,-2.80
2014,11,12,20,21,-2.80
2014,11,12,20,22,-2.80
2014,11,12,20,23,-2.80
2014,11,12,20,24,-2.80
2014,11,12,20,25,-2.80
2014,11,12,20,26,-2.80
2014,11,12,20,27,-2.80
2014,11,12,20,28,-2.80
2014,11,12,20,29,-2.80
2014,11,12,20,30,-2.80
2014,11,12,20,31,-2.80
2014,11,12,20,32,-2.80
2014,11,12,20,33,-2.80
2014,11,12,20,34,-2.80
2014,11,12,20,35,-2.80
2014,11,12,20,36,-2.80
2014,11,12,20,37,-2.80
2014,11,12,20,38,-2.80
2014,11,12,20,39,-2.80
2014,11,12,20,40,-2.80
2014,11,12,20,41,-2.80
2014,11,12,20,42,-2.90
2014,11,12,20,43,-2.90
2014,11,12,20,44,-2.90
2014,11,12,20,45,-2.90
2014,11,12,20,46,-2.90
2014,11,12,20,47,-2.90
2014,11,12,20,48,-2.90
2014,11,12,20,49,-2.90
2014,11,12,20,50,-2.90
2014,11,12,20,51,-2.90
2014,11,12,20,52,-2.90
2014,11,12,20,53,-2.90
2014,11,12,20,54,-2.90
2014,11,12,20,55,-2.90
2014,11,12,20,56,-2.90
2014,11,12,20,57,-2.90
2014,11,12,20,58,-2.90
2014,11,12,20,59,-2.90
2014,11,12,21,00,-2.90
2014,11,12,21,01,-2.90
2014,11,12,21,02,-3.00
2014,11,12,21,03,-2.90
2014,11,12,21,04,-2.90
2014,11,12,21,05,-2.90
2014,11,12,21,06,-2.90
2014,11,12,21,07,-2.90
2014,11,12,21,08,-2.90
2014,11,12,21,09,-2.90
2014,11,12,21,10,-3.00
2014,11,12,21,11,-3.00
2014,11,12,21,12,-3.00
2014,11,12,21,13,-3.00
2014,11,12,21,14,-3.00
2014,11,12,21,15,-3.00
2014,11,12,21,16,-3.00
2014,11,12,21,17,-3.10
2014,11,12,21,18,-3.10
2014,11,12,21,19,-3.10
2014,11,12,21,20,-3.10
2014,11,12,21,21,-3.10
2014,11,12,21,22,-3.10
2014,11,12,21,23,-3.10
2014,11,12,21,24,-3.10
2014,11,12,21,25,-3.20
2014,11,12,21,26,-3.20
2014,11,12,21,27,-3.20
2014,11,12,21,28,-3.20
2014,11,12,21,29,-3.20
2014,11,12,21,30,-3.20
2014,11,12,21,31,-3.20
2014,11,12,21,32,-3.20
2014,11,12,21,33,-3.20
2014,11,12,21,34,-3.20
2014,11,12,21,35,-3.20
2014,11,12,21,36,-3.20
2014,11,12,21,37,-3.20
2014,11,12,21,38,-3.20
2014,11,12,21,39,-3.20
2014,11,12,21,40,-3.20
2014,11,12,21,41,-3.20
2014,11,12,21,42,-3.30
2014,11,12,21,43,-3.30
2014,11,12,21,44,-3.30
2014,11,12,21,45,-3.30
2014,11,12,21,46,-3.30
2014,11,12,21,47,-3.30
2014,11,12,21,48,-3.30
2014,11,12,21,49,-3.30
2014,11,12,21,50,-3.30
2014,11,12,21,51,-3.30
2014,11,12,21,52,-3.30
2014,11,12,21,53,-3.30
2014,11,12,21,54,-3.30
2014,11,12,21,55,-3.30
2014,11,12,21,56,-3.30
2014,11,12,21,57,-3.30
2014,11,12,21,58,-3.30
2014,11,12,21,59,-3.30
2014,11,12,22,00,-3.30
2014,11,12,22,01,-3.30
2014,11,12,22,02,-3.30
2014,11,12,22,03,-3.30
2014,11,12,22,04,-3.30
2014,11,12,22,05,-3.40
2014,11,12,22,06,-3.40
2014,11,12,22,07,-3.40
2014,11,12,22,08,-3.40
2014,11,12,22,09,-3.40
2014,11,12,22,10,-3.40
2014,11,12,22,11,-3.40
2014,11,12,22,12,-3.40
2014,11,12,22,13,-3.50
2014,11,12,22,14,-3.50
2014,11,12,22,15,-3.50
2014,11,12,22,16,-3.50
2014,11,12,22,17,-3.50
2014,11,12,22,18,-3.50
2014,11,12,22,19,-3.50
2014,11,12,22,20,-3.50
2014,11,12,22,21,-3.50
2014,11,12,22,22,-3.50
2014,11,12,22,23,-3.50
2014,11,12,22,24,-3.60
2014,11,12,22,25,-3.60
2014,11,12,22,26,-3.60
2014,11,12,22,27,-3.60
2014,11,12,22,28,-3.60
2014,11,12,22,29,-3.60
2014,11,12,22,30,-3.60
2014,11,12,22,31,-3.60
2014,11,12,22,32,-3.60
2014,11,12,22,33,-3.60
2014,11,12,22,34,-3.60
2014,11,12,22,35,-3.70
2014,11,12,22,36,-3.70
2014,11,12,22,37,-3.70
2014,11,12,22,38,-3.70
2014,11,12,22,39,-3.70
2014,11,12,22,40,-3.70
2014,11,12,22,41,-3.70
2014,11,12,22,42,-3.70
2014,11,12,22,43,-3.70
2014,11,12,22,44,-3.70
2014,11,12,22,45,-3.80
2014,11,12,22,46,-3.80
2014,11,12,22,47,-3.80
2014,11,12,22,48,-3.80
2014,11,12,22,49,-3.80
2014,11,12,22,50,-3.80
2014,11,12,22,51,-3.80
2014,11,12,22,52,-3.80
2014,11,12,22,53,-3.80
2014,11,12,22,54,-3.80
2014,11,12,22,55,-3.80
2014,11,12,22,56,-3.80
2014,11,12,22,57,-3.80
2014,11,12,22,58,-3.80
2014,11,12,22,59,-3.80
2014,11,12,23,00,-3.80
2014,11,12,23,01,-3.80
2014,11,12,23,02,-3.80
2014,11,12,23,03,-3.80
2014,11,12,23,04,-3.80
2014,11,12,23,05,-3.80
2014,11,12,23,06,-3.80
2014,11,12,23,07,-3.80
2014,11,12,23,08,-3.80
2014,11,12,23,09,-3.80
2014,11,12,23,10,-3.80
2014,11,12,23,11,-3.80
2014,11,12,23,12,-3.80
2014,11,12,23,13,-3.80
2014,11,12,23,14,-3.80
2014,11,12,23,15,-3.80
2014,11,12,23,16,-3.80
2014,11,12,23,17,-3.80
2014,11,12,23,18,-3.80
2014,11,12,23,19,-3.80
2014,11,12,23,20,-3.80
2014,11,12,23,21,-3.80
2014,11,12,23,22,-3.80
2014,11,12,23,23,-3.80
2014,11,12,23,24,-3.80
2014,11,12,23,25,-3.80
2014,11,12,23,26,-3.80
2014,11,12,23,27,-3.90
2014,11,12,23,28,-3.90
2014,11,12,23,29,-3.90
2014,11,12,23,30,-3.90
2014,11,12,23,31,-3.90
2014,11,12,23,32,-3.90
2014,11,12,23,33,-3.90
2014,11,12,23,34,-3.90
2014,11,12,23,35,-3.90
2014,11,12,23,36,-3.90
2014,11,12,23,37,-3.90
2014,11,12,23,38,-3.90
2014,11,12,23,39,-3.90
2014,11,12,23,40,-3.90
2014,11,12,23,41,-3.90
2014,11,12,23,42,-3.90
2014,11,12,23,43,-3.90
2014,11,12,23,44,-3.90
2014,11,12,23,45,-3.90
2014,11,12,23,46,-3.90
2014,11,12,23,47,-3.90
2014,11,12,23,48,-3.90
2014,11,12,23,49,-3.90
2014,11,12,23,50,-4.00
2014,11,12,23,51,-4.00
2014,11,12,23,52,-4.00
2014,11,12,23,53,-4.00
2014,11,12,23,54,-4.10
2014,11,12,23,55,-4.10
2014,11,12,23,56,-4.10
2014,11,12,23,57,-4.10
2014,11,12,23,58,-4.10
2014,11,12,23,59,-4.00
